Miscellaneous Local Product
Issued by NWS Hastings, NE

Home | Current Version | Previous Version | Text Only | Print | Product List | Glossary Off
Versions: 1 2 3 4 5 6 7 8 9 10 11 12 13 14 15 16 17 18 19 20 21 22 23 24 25 26 27 28 29 30 31 32 33 34 35 36 37 38 39 40 41 42 43 44 45 46 47 48 49 50

139
AXUS43 KGID 150502
MISGRI

GID CWA HOURLY WEATHER ROUNDUP
NATIONAL WEATHER SERVICE HASTINGS NE
1200 AM CDT TUE AUG 15 2017

NOTE: "FAIR" INDICATES FEW OR NO CLOUDS BELOW 12,000 FEET WITH NO
SIGNIFICANT WEATHER AND/OR OBSTRUCTIONS TO VISIBILITY.

...SOUTH CENTRAL NEBRASKA...

CITY           SKY/WX    TMP DP  RH WIND       PRES   REMARKS
GRAND ISLAND   CLOUDY    71  66  84 E12       29.84F
HASTINGS       CLOUDY    73  65  75 E10       29.84F
KEARNEY        CLOUDY    71  65  81 E10       29.84S
ORD            CLOUDY    69  64  84 E3        29.85R
YORK           CLOUDY    70  64  83 E9        29.84F
AURORA         PTCLDY    69  65  86 E9        29.83F
LEXINGTON      CLOUDY    72  68  87 E12       29.83R
HOLDREGE       CLOUDY    71  67  89 E12       29.83R
HEBRON         PTCLDY    73  69  88 CALM      29.81S

...NEBRASKA PANHANDLE...

CITY           SKY/WX    TMP DP  RH WIND       PRES   REMARKS
CHADRON        CLOUDY    68  60  75 NE3       29.85R
ALLIANCE       LGT RAIN  64  61  90 CALM      29.87R
SCOTTSBLUFF    CLOUDY    64  60  87 E7        29.87R
SIDNEY         CLOUDY    66  62  87 SE5       29.91F

...WESTERN AND NORTH CENTRAL NEBRASKA...

CITY           SKY/WX    TMP DP  RH WIND       PRES   REMARKS
VALENTINE      LGT RAIN  70  62  76 E10       29.87S
AINSWORTH      CLOUDY    66  64  90 E7        29.88R
ONEILL         CLOUDY    65  60  85 E7        29.88R
BROKEN BOW     CLOUDY    70  64  81 SE8       29.86R
IMPERIAL       CLOUDY    66  60  81 CALM      29.84R
NORTH PLATTE   CLOUDY    70  67  90 E14       29.83R
MCCOOK         CLOUDY    71  66  84 E3        29.81R

...EASTERN NEBRASKA...

CITY           SKY/WX    TMP DP  RH WIND       PRES   REMARKS
NORFOLK        PTCLDY    66  60  81 E7        29.85F
SO SIOUX CITY  CLOUDY    67  62  84 E13       29.86F
TEKAMAH        CLOUDY    63  61  93 N6        29.85R
COLUMBUS       CLOUDY    66  64  93 E6        29.85S
ALBION         CLOUDY    69  64  83 E6        29.86S
OMAHA EPPLEY   PTCLDY    68  61  78 NW3       29.85R
OFFUTT AFB     CLOUDY    69  61  76 NE5       29.84S
MILLARD        CLOUDY    71  62  73 CALM      29.85S
LINCOLN        CLOUDY    73  65  75 NE9       29.84S
NEBRASKA CITY  CLOUDY    71  71  98 CALM      29.85R
BEATRICE       CLOUDY    74  69  86 E5        29.84R
FALLS CITY     CLOUDY    70  69  97 SE3       29.82S

...NORTHERN KANSAS...

CITY           SKY/WX    TMP DP  RH WIND       PRES   REMARKS
GOODLAND       CLOUDY    76  64  66 S12G22    29.83R
HILL CITY      PTCLDY    76  62  62 S5        29.80S
NORTON         CLEAR     75  57  53 SE5       29.79S
PHILLIPSBURG   CLEAR     77  64  65 SE7       29.79S
SMITH CENTER   CLOUDY    73  64  73 SE9       29.80S
HAYS           CLOUDY    74  67  78 S10       29.81S
RUSSELL        CLEAR     76  67  73 S13       29.80S
CONCORDIA      CLOUDY    75  70  84 S10       29.80F
SALINA         CLEAR     78  71  79 S10       29.81S
TOPEKA         CLEAR     74  71  91 E5        29.83R



USA.gov is the U.S. government's official web portal to all federal, state and local government web resources and services.